Regional Weather Roundup
Issued by NWS

Home | Current Version | Previous Version | Text Only | Print | Product List | Glossary On
Versions: 1 2 3 4 5 6 7 8 9 10 11 12 13 14 15 16 17 18 19 20 21 22 23 24 25 26 27 28
000
ASUS45 KPSR 220110
RWRAZ

ARIZONA HOURLY REGIONAL WEATHER ROUNDUP
NATIONAL WEATHER SERVICE PHOENIX AZ
600 PM MST WED FEB 21 2018

NOTE: FAIR INDICATES FEW OR NO CLOUDS BELOW 12,000 FEET WITH NO
SIGNIFICANT WEATHER AND/OR OBSTRUCTIONS TO VISIBILITY.

AZZ001>003-036-220200-
NORTHWEST ARIZONA

CITY           SKY/WX    TMP DP  RH WIND       PRES   REMARKS
BULLHEAD CITY  FAIR      55   3  12 CALM      30.08S
KINGMAN        CLOUDY    44   4  19 W12       30.04R
$$

AZZ004>008-015-016-018-220200-
NORTH CENTRAL ARIZONA

CITY           SKY/WX    TMP DP  RH WIND       PRES   REMARKS
GRAND CANYON   CLOUDY    29   9  43 W5        29.98S WCI  24
WILLIAMS       CLOUDY    30   3  31 SW6       29.96S WCI  24
PRESCOTT       CLOUDY    39   0  19 SW13      30.00R WCI  31
FLAGSTAFF      CLOUDY    29  10  45 SW14      29.97R WCI  18
PAYSON         CLOUDY    39  14  35 S7        30.01R WCI  34
PAGE           CLOUDY    39  10  30 E3        30.00S
$$

AZZ009>014-017-220200-
NORTHEAST ARIZONA

CITY           SKY/WX    TMP DP  RH WIND       PRES   REMARKS
WINSLOW        MOCLDY    45  11  25 SW15      29.98R
SAINT JOHNS    FAIR      45  18  34 SW12      29.95R
WINDOW ROCK    CLOUDY    39  20  46 SW14      29.96R WCI  31
SHOW LOW       FAIR      37  21  52 SW17G25   29.98R WCI  28
$$

AZZ540-542>544-546-548-220200-
GREATER PHOENIX AREA

CITY           SKY/WX    TMP DP  RH WIND       PRES   REMARKS
PHOENIX        MOCLDY    58  10  15 W8        30.03R
BUCKEYE        FAIR      57   9  14 SW3       30.05S
GLENDALE       PTCLDY    57   3  11 SW8       30.06R
LUKE AFB       FAIR      58   5  12 W8        30.03R
DEER VALLEY    FAIR      55   7  14 W12       30.03R
SCOTTSDALE     MOCLDY    57  14  18 W6        30.05R
MESA-FALCON    PTCLDY    57  16  19 W6        30.04R
MESA-GATEWAY   MOCLDY    57  16  19 W7        30.05R
CHANDLER       MOCLDY    59  12  15 W6        30.04R
$$

AZZ539-553-220200-
SOUTHWEST MARICOPA COUNTY AND PINAL COUNTY

CITY           SKY/WX    TMP DP  RH WIND       PRES   REMARKS
CASA GRANDE      N/A     57  15  19 NW6       30.05R
GILA BEND      MOCLDY    58   2  10 W8        30.05R
$$

AZZ503-504-507>509-220200-
SOUTHEAST ARIZONA

CITY           SKY/WX    TMP DP  RH WIND       PRES   REMARKS
TUCSON         FAIR      56  20  24 NW14      30.03R
DAVIS-MONTHAN  FAIR      55  22  28 NW13      30.01R
RYAN FIELD     CLEAR     55  21  26 NW10      30.04R
NOGALES        FAIR      51  23  33 SW9       30.03R
SIERRA VISTA   FAIR      50  23  34 SW10      30.03R
DOUGLAS        FAIR      55  21  26 SW8       30.00S
SAFFORD        FAIR      58  28  32 NW7       29.94S
$$

AZZ532-220200-
SOUTHWEST ARIZONA

CITY           SKY/WX    TMP DP  RH WIND       PRES   REMARKS
YUMA           FAIR      59  18  20 SW7       30.07S
$$

CAZ041-043-047-048-061-525>527-560>570-220200-
SOUTHERN CALIFORNIA

CITY           SKY/WX    TMP DP  RH WIND       PRES   REMARKS
DOWNTOWN L.A.  FAIR      57  26  30 VRB5      30.10S
L.A. AIRPORT   FAIR      57  32  38 W20       30.12R
SAN DIEGO      FAIR      58  37  45 W14       30.15S
BURBANK        CLOUDY    57  25  29 S12       30.08R
ONTARIO        FAIR      54  30  40 SW10      30.09R
RIVERSIDE      FAIR      55  31  39 SW15      30.09S
PALM SPRINGS   CLOUDY    61  18  18 VRB5      30.07S
EL CENTRO NAS  MOCLDY    60  27  28 W10       30.09S
IMPERIAL       CLOUDY    60  21  22 N6        30.07R
BLYTHE         FAIR      59   7  12 NE7       30.07S
NEEDLES        FAIR      58   4  11 NE3       30.07S
$$

NVZ020-UTZ003-220200-
SOUTHERN NEVADA-UTAH

CITY           SKY/WX    TMP DP  RH WIND       PRES   REMARKS
LAS VEGAS      MOCLDY    49   9  19 W3        30.07S
SALT LAKE CITY FAIR      28  12  51 W6        30.09S WCI  22
$$

NMZ009-TXZ055-220200-
NEW MEXICO-WEST TEXAS

CITY           SKY/WX    TMP DP  RH WIND       PRES   REMARKS
ALBUQUERQUE    MOCLDY    47  24  40 SE16      29.99S
EL PASO        FAIR      56  25  30 E13       29.99S
$$


........................KEY........................
SKY/WX - SKY CONDITION/WEATHER
TMP    - TEMPERATURE IN FAHRENHEIT
DP     - DEW POINT IN FAHRENHEIT
RH     - RELATIVE HUMIDITY IN PERCENT
WIND   - DIRECTION AND SPEED IN MILES PER HOUR (MPH)
VRB    - VARIABLE WIND DIRECTION
PRES   - MEAN SEA LEVEL PRESSURE IN INCHES OF MERCURY
         F - FALLING PRESSURE   R - RISING PRESSURE
         S - STEADY PRESSURE
VSB    - VISIBILITY IN MILES
HX     - HEAT INDEX IN FAHRENHEIT
WCI    - WIND CHILL INDEX IN FAHRENHEIT
TC     - TEMPERATURE IN CELSIUS WHICH IS ALSO KNOWN AS
         TEMPERATURE IN CENTIGRADE
AFB    - AIR FORCE BASE
         LUKE AFB IS LUKE AIR FORCE BASE
         DAVIS-MONTHAN IS DAVIS-MONTHAN AIR FORCE BASE
NAS    - NAVAL AIR STATION
         EL CENTRO NAS IS EL CENTRO NAVAL AIR STATION
N/A    - NOT AVAILABLE





USA.gov is the U.S. government's official web portal to all federal, state and local government web resources and services.